Nogales, AZ

5:57 AM MST on May 24, 2018 (GMT -0700)
Nogales International

Weather History for KOLS - April, 2014

Change the Weather History Date:

Thursday, April 24, 2014

  Actual Average (WUND) Record (WUND)
Temperature  
Mean Temperature 64 °F -  
Max Temperature 84 °F - - (-1)
Min Temperature 44 °F - - (-1)
Degree Days  
Heating Degree Days 1    
Growing Degree Days 14 (Base 50)    
Moisture  
Dew Point 18 °F    
Average Humidity 19    
Maximum Humidity 37    
Minimum Humidity 7    
Precipitation  
Precipitation 0.00 in - - ()
Sea Level Pressure  
Sea Level Pressure 29.86 in    
Wind  
Wind Speed 6 mph (South)    
Max Wind Speed 15 mph    
Max Gust Speed 23 mph    
Visibility 10 miles    
Events      
Averages and records for this station are not official NWS values.
T = Trace of Precipitation, MM = Missing Value Source: NWS Daily Summary

Daily Weather History Graph

Daily Weather History Graph

Search for Another Location

Airport or City:

Astronomy

Apr. 24, 2014 Rise Set
Actual Time 5:45 AM MST 6:58 PM MST
Civil Twilight 5:19 AM MST 7:23 PM MST
Nautical Twilight 4:49 AM MST 7:53 PM MST
Astronomical Twilight 4:18 AM MST 8:25 PM MST
Moon 2:39 AM MST 2:35 PM MST
Length of Visible Light 14h 03m
Length of Day
13h 13m
Waning Crescent, 23% of the Moon is Illuminated
Apr 24
Waning Crescent
Apr 28
New
May 6
First Quarter
May 14
Full
May 21
Last Quarter

Hourly Weather History & Observations

Time (MST) Temp. Windchill Dew Point Humidity Pressure Visibility Wind Dir Wind Speed Gust Speed Precip Events Conditions
12:54 AM 52.0 °F - 19.9 °F 28% 29.85 in 10.0 mi ENE 6.9 mph - N/A   Clear
1:54 AM 51.1 °F - 19.0 °F 28% 29.86 in 10.0 mi ESE 4.6 mph - N/A   Clear
2:54 AM 48.9 °F - 19.0 °F 31% 29.86 in 10.0 mi Calm Calm - N/A   Clear
3:54 AM 46.0 °F 43.9 °F 19.0 °F 34% 29.87 in 10.0 mi ENE 4.6 mph - N/A   Clear
4:54 AM 45.0 °F 43.5 °F 19.0 °F 36% 29.88 in 10.0 mi ENE 3.5 mph - N/A   Clear
5:54 AM 44.1 °F - 19.0 °F 37% 29.90 in 10.0 mi Calm Calm - N/A   Clear
6:54 AM 50.0 °F - 19.9 °F 31% 29.92 in 10.0 mi Calm Calm - N/A   Clear
7:54 AM 59.0 °F - 19.9 °F 22% 29.91 in 10.0 mi Calm Calm - N/A   Clear
8:54 AM 66.0 °F - 18.0 °F 16% 29.91 in 10.0 mi Variable 3.5 mph - N/A   Clear
9:54 AM 73.0 °F - 25.0 °F 17% 29.91 in 10.0 mi ESE 5.8 mph - N/A   Clear
10:54 AM 77.0 °F - 24.1 °F 14% 29.89 in 10.0 mi SW 9.2 mph - N/A   Clear
11:54 AM 81.0 °F - 19.0 °F 10% 29.87 in 10.0 mi SW 9.2 mph 20.7 mph N/A   Clear
12:54 PM 82.9 °F - 21.0 °F 10% 29.85 in 10.0 mi Variable 6.9 mph 19.6 mph N/A   Clear
1:54 PM 82.9 °F - 12.9 °F 7% 29.85 in 10.0 mi West 12.7 mph 23.0 mph N/A   Clear
2:54 PM 84.0 °F - 16.0 °F 8% 29.83 in 10.0 mi SW 11.5 mph 21.9 mph N/A   Clear
3:54 PM 82.9 °F - 14.0 °F 8% 29.83 in 10.0 mi SSW 13.8 mph 19.6 mph N/A   Clear
4:54 PM 82.0 °F - 14.0 °F 8% 29.83 in 10.0 mi SSW 10.4 mph - N/A   Clear
5:54 PM 80.1 °F - 12.9 °F 8% 29.83 in 10.0 mi SW 15.0 mph - N/A   Clear
6:54 PM 75.0 °F - 14.0 °F 10% 29.84 in 10.0 mi SW 9.2 mph - N/A   Clear
7:54 PM 71.1 °F - 14.0 °F 11% 29.84 in 10.0 mi SSW 4.6 mph - N/A   Clear
8:54 PM 68.0 °F - 14.0 °F 12% 29.85 in 10.0 mi South 5.8 mph - N/A   Clear
9:54 PM 63.0 °F - 15.1 °F 16% 29.86 in 10.0 mi SE 5.8 mph - N/A   Clear
10:54 PM 64.9 °F - 23.0 °F 20% 29.85 in 10.0 mi SW 3.5 mph - N/A   Clear
11:54 PM 57.9 °F - 19.0 °F 22% 29.85 in 10.0 mi East 8.1 mph - N/A   Clear